Silver City, NM

10:47 PM MST on December 09, 2019 (GMT -0700)
Grant County

Weather History for KSVC - October, 2019

Change the Weather History Date:

Tuesday, October 29, 2019

  Actual Average (KDMN) Record (KDMN)
Temperature  
Mean Temperature 48 °F -  
Max Temperature 65 °F 74 °F 87 °F (1950)
Min Temperature 32 °F 38 °F 23 °F (1970)
Degree Days  
Heating Degree Days 16    
Moisture  
Dew Point 15 °F    
Average Humidity 25    
Maximum Humidity 48    
Minimum Humidity 15    
Precipitation  
Precipitation 0.00 in - - ()
Sea Level Pressure  
Sea Level Pressure 29.96 in    
Wind  
Wind Speed 11 mph (WNW)    
Max Wind Speed 21 mph    
Max Gust Speed 30 mph    
Visibility 10 miles    
Events      
Averages and records for this station are not official NWS values.
T = Trace of Precipitation, MM = Missing Value Source: NWS Daily Summary

Daily Weather History Graph

Daily Weather History Graph

Search for Another Location

Airport or City:

Astronomy

Oct. 29, 2019 Rise Set
Actual Time 7:27 AM MDT 6:24 PM MDT
Civil Twilight 7:02 AM MDT 6:50 PM MDT
Nautical Twilight 6:33 AM MDT 7:18 PM MDT
Astronomical Twilight 6:04 AM MDT 7:47 PM MDT
Moon 9:01 AM MDT (10/29) 7:55 PM MDT (10/29)
Length of Visible Light 11h 47m
Length of Day
10h 57m
Waxing Crescent, 3% of the Moon is Illuminated
Oct 29
Waxing Crescent
Nov 4
First Quarter
Nov 12
Full
Nov 19
Last Quarter
Nov 26
New

Hourly Weather History & Observations

Time (MDT) Temp. Windchill Dew Point Humidity Pressure Visibility Wind Dir Wind Speed Gust Speed Precip Events Conditions
12:15 AM 44.8 °F 39.9 °F 9.1 °F 23% 30.02 in 10.0 mi North 9.2 mph - N/A   Clear
12:35 AM 43.0 °F 38.2 °F 9.5 °F 25% 30.02 in 10.0 mi North 8.1 mph - N/A   Clear
12:55 AM 41.2 °F 36.6 °F 9.0 °F 27% 30.02 in 10.0 mi NNW 6.9 mph - N/A   Clear
1:15 AM 41.7 °F 36.7 °F 7.9 °F 25% 30.01 in 10.0 mi NNW 8.1 mph - N/A   Clear
1:35 AM 40.1 °F 33.2 °F 8.6 °F 27% 30.01 in 10.0 mi NNW 11.5 mph - N/A   Clear
1:55 AM 42.8 °F 37.0 °F 7.5 °F 24% 30.01 in 10.0 mi NNW 10.4 mph - N/A   Clear
2:15 AM 41.5 °F 33.8 °F 8.2 °F 25% 30.01 in 10.0 mi NNW 15.0 mph - N/A   Clear
2:35 AM 43.3 °F 36.8 °F 7.3 °F 23% 30.01 in 10.0 mi NNW 12.7 mph - N/A   Clear
2:55 AM 42.6 °F 36.3 °F 7.5 °F 24% 30.01 in 10.0 mi NNW 11.5 mph - N/A   Clear
3:15 AM 39.0 °F 31.8 °F 9.9 °F 30% 30.01 in 10.0 mi NNW 11.5 mph - N/A   Clear
3:35 AM 43.0 °F 36.8 °F 9.5 °F 25% 30.00 in 10.0 mi NNW 11.5 mph - N/A   Clear
3:55 AM 42.8 °F 36.2 °F 10.9 °F 27% 30.00 in 10.0 mi NNW 12.7 mph - N/A   Clear
4:15 AM 40.6 °F 33.8 °F 11.5 °F 30% 29.99 in 10.0 mi North 11.5 mph - N/A   Clear
4:35 AM 40.1 °F 34.1 °F 10.8 °F 30% 29.98 in 10.0 mi North 9.2 mph - N/A   Clear
4:55 AM 39.0 °F 33.4 °F 10.8 °F 31% 29.98 in 10.0 mi NNW 8.1 mph - N/A   Clear
5:15 AM 36.0 °F 29.6 °F 10.8 °F 35% 29.98 in 10.0 mi North 8.1 mph - N/A   Clear
5:35 AM 37.8 °F 31.8 °F 11.8 °F 34% 29.98 in 10.0 mi NNW 8.1 mph - N/A   Clear
5:55 AM 37.0 °F 30.4 °F 12.2 °F 36% 29.99 in 10.0 mi NNW 9.2 mph - N/A   Clear
6:15 AM 35.8 °F 29.4 °F 12.4 °F 38% 29.99 in 10.0 mi NNW 8.1 mph - N/A   Clear
6:35 AM 39.0 °F 33.4 °F 14.2 °F 36% 29.99 in 10.0 mi NW 8.1 mph - N/A   Clear
6:55 AM 37.6 °F 32.3 °F 14.0 °F 38% 29.99 in 10.0 mi NNW 6.9 mph - N/A   Clear
7:15 AM 32.2 °F 25.0 °F 14.2 °F 48% 29.99 in 10.0 mi North 8.1 mph - N/A   Clear
7:35 AM 36.0 °F 29.0 °F 17.4 °F 47% 29.99 in 10.0 mi North 9.2 mph - N/A   Clear
7:55 AM 37.0 °F 30.4 °F 17.6 °F 45% 29.99 in 10.0 mi North 9.2 mph - N/A   Clear
8:15 AM 41.2 °F 36.0 °F 19.4 °F 42% 30.00 in 10.0 mi North 8.1 mph - N/A   Clear
8:35 AM 47.7 °F - 21.2 °F 35% 30.00 in 10.0 mi NNW 8.1 mph - N/A   Clear
8:55 AM 50.9 °F - 18.5 °F 28% 30.00 in 10.0 mi NNW 10.4 mph - N/A   Clear
9:15 AM 52.5 °F - 18.1 °F 26% 30.01 in 10.0 mi NW 10.4 mph - N/A   Clear
9:35 AM 53.1 °F - 18.7 °F 26% 30.00 in 10.0 mi NW 10.4 mph - N/A   Clear
9:55 AM 54.3 °F - 19.2 °F 25% 30.01 in 10.0 mi NW 12.7 mph - N/A   Clear
10:15 AM 55.6 °F - 21.4 °F 26% 30.00 in 10.0 mi WNW 11.5 mph - N/A   Clear
10:35 AM 58.1 °F - 25.2 °F 28% 30.00 in 10.0 mi West 11.5 mph 19.6 mph N/A   Clear
10:55 AM 58.5 °F - 25.0 °F 28% 30.00 in 10.0 mi WSW 17.3 mph 21.9 mph N/A   Clear
11:15 AM 59.0 °F - 24.3 °F 26% 29.98 in 10.0 mi WSW 16.1 mph 20.7 mph N/A   Clear
11:35 AM 60.3 °F - 23.4 °F 24% 29.98 in 10.0 mi WSW 16.1 mph 21.9 mph N/A   Clear
11:55 AM 61.0 °F - 21.7 °F 22% 29.97 in 10.0 mi WSW 15.0 mph 26.5 mph N/A   Clear
12:15 PM 61.9 °F - 22.3 °F 22% 29.97 in 10.0 mi WSW 18.4 mph 24.2 mph N/A   Clear
12:35 PM 62.2 °F - 20.8 °F 20% 29.96 in 10.0 mi WSW 15.0 mph 25.3 mph N/A   Clear
12:55 PM 62.4 °F - 19.9 °F 20% 29.95 in 10.0 mi WSW 20.7 mph 29.9 mph N/A   Clear
1:15 PM 63.3 °F - 19.9 °F 19% 29.94 in 10.0 mi WSW 17.3 mph 27.6 mph N/A   Clear
1:35 PM 63.5 °F - 19.9 °F 19% 29.93 in 10.0 mi WSW 18.4 mph 26.5 mph N/A   Clear
1:55 PM 63.7 °F - 19.6 °F 18% 29.92 in 10.0 mi WSW 19.6 mph 28.8 mph N/A   Clear
2:15 PM 64.6 °F - 19.4 °F 18% 29.91 in 10.0 mi WSW 17.3 mph 24.2 mph N/A   Clear
2:35 PM 64.2 °F - 18.7 °F 17% 29.90 in 10.0 mi WSW 15.0 mph 23.0 mph N/A   Clear
2:55 PM 64.6 °F - 19.4 °F 18% 29.90 in 10.0 mi West 16.1 mph 23.0 mph N/A   Clear
3:15 PM 64.8 °F - 20.7 °F 19% 29.89 in 10.0 mi WSW 11.5 mph 24.2 mph N/A   Clear
3:35 PM 64.4 °F - 20.3 °F 18% 29.89 in 10.0 mi West 16.1 mph 23.0 mph N/A   Clear
3:55 PM 65.1 °F - 21.2 °F 19% 29.89 in 10.0 mi WSW 15.0 mph 23.0 mph N/A   Clear
4:15 PM 65.3 °F - 21.6 °F 19% 29.89 in 10.0 mi West 15.0 mph 23.0 mph N/A   Clear
4:35 PM 64.9 °F - 20.8 °F 19% 29.89 in 10.0 mi WSW 16.1 mph 25.3 mph N/A   Clear
4:55 PM 64.9 °F - 19.4 °F 17% 29.88 in 10.0 mi West 16.1 mph 27.6 mph N/A   Clear
5:15 PM 64.4 °F - 18.5 °F 17% 29.88 in 10.0 mi West 16.1 mph 26.5 mph N/A   Clear
5:35 PM 63.9 °F - 18.3 °F 17% 29.88 in 10.0 mi West 15.0 mph 18.4 mph N/A   Clear
5:55 PM 63.3 °F - 14.5 °F 15% 29.88 in 10.0 mi West 20.7 mph 28.8 mph N/A   Clear
6:15 PM 61.2 °F - 12.6 °F 15% 29.88 in 10.0 mi West 13.8 mph 21.9 mph N/A   Clear
6:35 PM 59.9 °F - 12.2 °F 15% 29.88 in 10.0 mi West 15.0 mph 20.7 mph N/A   Clear
6:55 PM 58.6 °F - 11.3 °F 15% 29.88 in 10.0 mi West 15.0 mph - N/A   Clear
7:15 PM 57.2 °F - 11.3 °F 16% 29.88 in 10.0 mi WNW 12.7 mph - N/A   Clear
7:35 PM 56.3 °F - 11.8 °F 17% 29.89 in 10.0 mi WNW 12.7 mph - N/A   Clear
8:15 PM 51.3 °F - 12.0 °F 21% 29.91 in 10.0 mi WNW 8.1 mph - N/A   Clear
8:35 PM 52.2 °F - 11.3 °F 20% 29.92 in 10.0 mi NW 9.2 mph - N/A   Clear
8:55 PM 51.8 °F - 11.3 °F 20% 29.92 in 10.0 mi WNW 4.6 mph - N/A   Clear
9:15 PM 50.9 °F - 11.3 °F 20% 29.93 in 10.0 mi WNW 6.9 mph - N/A   Clear
9:35 PM 49.5 °F - 11.7 °F 22% 29.94 in 10.0 mi NW 5.8 mph - N/A   Clear
9:55 PM 51.4 °F - 12.4 °F 21% 29.94 in 10.0 mi West 8.1 mph - N/A   Clear
10:15 PM 51.4 °F - 12.0 °F 21% 29.94 in 10.0 mi West 9.2 mph - N/A   Clear
10:35 PM 52.7 °F - 12.4 °F 20% 29.94 in 10.0 mi WNW 10.4 mph 17.3 mph N/A   Clear
10:55 PM 53.6 °F - 12.4 °F 19% 29.95 in 10.0 mi West 12.7 mph 20.7 mph N/A   Clear
11:15 PM 52.9 °F - 11.8 °F 19% 29.96 in 10.0 mi West 8.1 mph 16.1 mph N/A   Clear
11:35 PM 50.9 °F - 11.3 °F 20% 29.96 in 10.0 mi West 4.6 mph - N/A   Clear
11:55 PM 50.9 °F - 9.9 °F 19% 29.96 in 10.0 mi WNW 11.5 mph - N/A   Clear